Regional Weather Roundup
Issued by NWS Cleveland, OH

Home | Current Version | Previous Version | Text Only | Print | Product List | Glossary Off
Versions: 1 2 3 4 5 6 7 8 9 10 11 12 13 14 15 16 17 18 19 20 21 22 23 24 25 26 27 28 29 30 31 32 33 34 35 36 37 38 39 40 41 42 43 44 45 46 47 48 49 50

000
ASUS41 KCLE 220410
RWRCLE
OHIO REGIONAL WEATHER ROUNDUP
NATIONAL WEATHER SERVICE WILMINGTON, OH
1200 AM EDT SUN OCT 22 2017

NOTE: "FAIR" INDICATES FEW OR NO CLOUDS BELOW 12,000 FEET WITH NO
SIGNIFICANT WEATHER AND/OR OBSTRUCTIONS TO VISIBILITY.

OHZ001>008-015>018-024>027-034-035-043-044-220500-
   NORTHWEST OHIO

CITY           SKY/WX    TMP DP  RH WIND       PRES   REMARKS
DEFIANCE       FAIR      62  45  53 S6        30.15F
FINDLAY        FAIR      59  45  59 SE7       30.18S
TOLEDO EXPRESS FAIR      61  46  57 S5        30.16F
TOLEDO EXEC    FAIR      59  44  57 CALM      30.18F
LIMA           FAIR      57  48  72 SE9       30.18F
$$

OHZ009>014-019>023-028>033-038-089-220500-
   NORTHEAST OHIO

CITY           SKY/WX    TMP DP  RH WIND       PRES   REMARKS
CLE-HOPKINS    FAIR      64  52  64 S10       30.23S
CLE-LAKEFRONT  FAIR      63  50  62 S12       30.20S
CUY CO. ARPT   NOT AVBL
LORAIN-ELYRIA  FAIR      59  48  67 S8        30.21F
ASHTABULA      FAIR      59  52  77 S7        30.24S
AKRON-CANTON   FAIR      57  49  74 S7        30.24F
WOOSTER        FAIR      54  51  90 CALM      30.24F
MANSFIELD      FAIR      60  51  72 S8        30.23S
YOUNGSTOWN     FAIR      55  49  80 SE7       30.25F
$$

OHZ042-051>053-060>062-070>072-077>081-220500-
  SOUTHWEST OHIO

CITY           SKY/WX    TMP DP  RH WIND       PRES   REMARKS
CINC-COVINGTON FAIR      58  48  69 S5        30.19F
CINC-LUNKEN    FAIR      50  50 100 CALM      30.21F FOG
HAMILTON       FAIR      55  50  83 E6        30.20S
DAYTON         FAIR      56  50  80 SE9       30.20F
WRIGHT-PAT AFB PTCLDY    59  50  71 SE3       30.20S
DAYTON GENERAL FAIR      59  47  64 S3        30.19F
WILMINGTON     FAIR      59  51  75 SE6       30.21F
$$

OHZ036-037-039>041-045>050-054>059-063>069-073>076-082>088-220500-
  CENTRAL AND SOUTHEAST OHIO

CITY           SKY/WX    TMP DP  RH WIND       PRES   REMARKS
COLUMBUS       MOCLDY    64  51  62 SE6       30.22S
OSU AIRPORT    FAIR      62  53  72 S5        30.22S
BOLTON FIELD   FAIR      58  52  79 S6        30.23S
RICKENBACK AFB FAIR      58  51  78 CALM      30.22S
NEWARK         FAIR      52  50  93 CALM      30.22F
MARION         FAIR      60  50  69 S9        30.21F
LANCASTER      FAIR      55  52  89 S5        30.23F
ZANESVILLE     FAIR      55  51  86 CALM      30.24F
NEW PHILLY     FAIR      52  50  93 SE5       30.26S
$$




USA.gov is the U.S. government's official web portal to all federal, state and local government web resources and services.